IRIDIUM 58 [B] (25274 NORAD) Tracking and Keplerian Element Data

This shows tracking and keplerian element data for the satellite.

Feedback or suggestion? Click here.




ElementValue
Catalog25274
NameIRIDIUM 58 [B]
Epoch Orbit6228
Epoch Day195.86617048
Epoch Year2018
RAAN123.4261
Inclination86.4234
Eccentricity0.0002649
Argument of Perigee91.513
Mean Anonmoly268.6371
Mean Motion14.38907475
Decay Rate1.04E-06
L11 25274U 98019C 18195.86617048 .00000104 00000-0 27411-4 0 9995
L22 25274 86.4234 123.4261 0002649 91.5130 268.6371 14.38907475 62287

Live tracking and technical data element details for IRIDIUM 58 [B] (NORAD 25274). IRIDIUM 58 [B] can be tracked NOW for your location showing map with azimuth and elevation plus other details from your city location.

Track the satellite on the map from your city or location and see movement details for azimuth, elevation, latitude, longitude, range, height, and movement on the map or in text.







IsCatalogInMostPopularTable: catalog: 25274, numindb: 35
Update: records affected: 1



GetName: 25274 IRIDIUM 58 [B]

Hit Count: updated at: Mon, 16 Jul 2018 14:46:34 GMT